Location: Huberhof
(49.2050°N, 7.4980°E)
Time: 05:10:41
(UTC+00:00)

NOSS 3-4 (A) - Pass Details

Date: 29 October 2020
Orbit: 885 x 1327 km, 63.4° (Epoch: 06 November)

Event Time Altitude Azimuth Distance (km) Brightness Sun altitude
Rises 17:52:18 0° 316° (NW) 3,750 7.2 -16.7°
Reaches altitude 10° 17:54:52 10° 321° (NW) 2,856 6.4 -17.1°
Maximum altitude 18:01:34 57° 40° (NE) 1,314 3.9 -18.2°
Enters shadow 18:05:39 27° 107° (ESE) 2,083 4.7 -18.8°
